TimeCDT,TemperatureF,Dew PointF,Humidity,Sea Level PressureIn,VisibilityMPH,Wind Direction,Wind SpeedMPH,Gust SpeedMPH,PrecipitationIn,Events,Conditions,WindDirDegrees,DateUTC
12:53 AM,64.9,63.0,93,30.17,4.0,Calm,Calm,-,N/A,,Clear,0,2012-10-14 05:53:00
1:53 AM,64.0,61.0,90,30.16,3.0,Calm,Calm,-,N/A,,Clear,0,2012-10-14 06:53:00
2:07 AM,62.6,60.8,94,30.16,1.8,Calm,Calm,-,N/A,,Clear,0,2012-10-14 07:07:00
2:19 AM,62.6,60.8,94,30.15,3.0,Calm,Calm,-,N/A,,Clear,0,2012-10-14 07:19:00
2:49 AM,62.6,60.8,94,30.15,2.5,Calm,Calm,-,N/A,,Clear,0,2012-10-14 07:49:00
2:53 AM,62.1,60.1,93,30.14,2.0,Calm,Calm,-,N/A,,Clear,0,2012-10-14 07:53:00
3:01 AM,62.6,60.8,94,30.15,1.8,Calm,Calm,-,N/A,,Clear,0,2012-10-14 08:01:00
3:07 AM,62.6,60.8,94,30.15,3.0,Calm,Calm,-,N/A,,Clear,0,2012-10-14 08:07:00
3:22 AM,62.6,60.8,94,30.14,4.0,Calm,Calm,-,N/A,,Partly Cloudy,0,2012-10-14 08:22:00
3:53 AM,61.0,59.0,93,30.13,3.0,Calm,Calm,-,N/A,,Clear,0,2012-10-14 08:53:00
4:53 AM,64.0,61.0,90,30.12,7.0,SE,5.8,-,N/A,,Clear,130,2012-10-14 09:53:00
5:53 AM,64.0,61.0,90,30.13,7.0,SE,4.6,-,N/A,,Clear,130,2012-10-14 10:53:00
6:53 AM,64.0,62.1,93,30.14,4.0,Calm,Calm,-,0.01,,Scattered Clouds,0,2012-10-14 11:53:00
7:04 AM,64.4,62.6,94,30.15,4.0,SSE,3.5,-,N/A,,Mostly Cloudy,150,2012-10-14 12:04:00
7:45 AM,64.4,62.6,94,30.16,5.0,SE,5.8,-,N/A,,Overcast,130,2012-10-14 12:45:00
7:53 AM,64.9,63.0,93,30.15,5.0,SE,5.8,-,N/A,,Overcast,130,2012-10-14 12:53:00
8:46 AM,66.2,64.4,94,30.18,7.0,Calm,Calm,-,N/A,,Overcast,0,2012-10-14 13:46:00
8:53 AM,68.0,64.9,90,30.18,7.0,Calm,Calm,-,N/A,,Overcast,0,2012-10-14 13:53:00
9:00 AM,69.8,64.4,83,30.19,8.0,Calm,Calm,-,N/A,,Overcast,0,2012-10-14 14:00:00
9:38 AM,71.6,64.4,78,30.20,10.0,SE,5.8,-,N/A,,Partly Cloudy,130,2012-10-14 14:38:00
9:53 AM,72.0,64.9,78,30.20,10.0,ESE,4.6,-,N/A,,Clear,120,2012-10-14 14:53:00
10:53 AM,75.9,66.0,71,30.20,10.0,SSE,4.6,-,N/A,,Clear,160,2012-10-14 15:53:00
11:53 AM,80.1,66.9,64,30.18,10.0,SSE,6.9,-,N/A,,Partly Cloudy,160,2012-10-14 16:53:00
12:53 PM,81.0,66.9,62,30.15,10.0,Variable,3.5,-,N/A,,Overcast,0,2012-10-14 17:53:00
1:53 PM,82.9,66.9,58,30.10,10.0,SSE,3.5,-,N/A,,Partly Cloudy,160,2012-10-14 18:53:00
2:53 PM,82.9,66.9,58,30.07,10.0,Variable,3.5,-,N/A,,Clear,0,2012-10-14 19:53:00
3:53 PM,82.0,66.9,60,30.06,10.0,South,6.9,-,N/A,,Scattered Clouds,170,2012-10-14 20:53:00
4:53 PM,82.0,68.0,62,30.04,10.0,SSW,5.8,-,N/A,,Mostly Cloudy,200,2012-10-14 21:53:00
5:53 PM,78.1,69.1,74,30.01,10.0,South,4.6,-,N/A,,Clear,180,2012-10-14 22:53:00
6:53 PM,73.0,69.1,87,30.02,10.0,Calm,Calm,-,N/A,,Partly Cloudy,0,2012-10-14 23:53:00
7:53 PM,71.1,68.0,90,30.04,7.0,Calm,Calm,-,N/A,,Clear,0,2012-10-15 00:53:00
8:53 PM,73.0,69.1,87,30.04,10.0,SSW,4.6,-,N/A,,Clear,210,2012-10-15 01:53:00
9:53 PM,72.0,69.1,91,30.04,9.0,SSW,4.6,-,N/A,,Clear,200,2012-10-15 02:53:00
10:53 PM,70.0,68.0,93,30.04,6.0,South,5.8,-,N/A,,Partly Cloudy,180,2012-10-15 03:53:00
11:53 PM,70.0,68.0,93,30.01,4.0,South,3.5,-,N/A,,Clear,190,2012-10-15 04:53:00